• In Austria
  • List of Countries
  • For 7 days
  • Water Temperature
  • Satellite Maps
  • Weather Map
  • News
  • Weather Widgets
  • user-avatar
    Login

    Hourly Weather Ordino

    Today, 25 September, Tuesday

    Time Temperature Precipitation Wind Pressure Humidity
    00:00 +7°C° 0 mm 2 mps 639 mmHg 67%
    01:00 +7°C° 0 mm 2 mps 639 mmHg 64%
    02:00 +8°C° 0 mm 1 mps 639 mmHg 61%
    03:00 +8°C° 0 mm 1 mps 639 mmHg 58%
    04:00 +7°C° 0 mm 1 mps 639 mmHg 58%
    05:00 +7°C° 0 mm 1 mps 639 mmHg 58%
    06:00 +7°C° 0 mm 1 mps 639 mmHg 54%
    07:00 +9°C° 0 mm 1 mps 640 mmHg 52%
    08:00 +12°C° 0 mm 1 mps 641 mmHg 50%
    09:00 +14°C° 0 mm 1 mps 642 mmHg 48%
    10:00 +15°C° 0 mm 2 mps 642 mmHg 47%
    11:00 +16°C° 0 mm 2 mps 643 mmHg 45%
    12:00 +17°C° 0 mm 2 mps 643 mmHg 44%
    13:00 +17°C° 0 mm 2 mps 643 mmHg 47%
    14:00 +17°C° 0 mm 2 mps 642 mmHg 49%
    15:00 +16°C° 0 mm 2 mps 642 mmHg 52%
    16:00 +15°C° 0 mm 2 mps 642 mmHg 59%
    17:00 +13°C° 0 mm 2 mps 641 mmHg 66%
    18:00 +12°C° 0 mm 1 mps 641 mmHg 73%
    19:00 +11°C° 0 mm 1 mps 641 mmHg 77%
    20:00 +10°C° 0 mm 1 mps 641 mmHg 81%
    21:00 +10°C° 0 mm 1 mps 641 mmHg 85%
    22:00 +9°C° 0 mm 1 mps 641 mmHg 86%
    23:00 +8°C° 0 mm 2 mps 641 mmHg 86%

    Tomorrow, 26 September, Wednesday

    Time Temperature Precipitation Wind Pressure Humidity
    00:00 +8°C° 0 mm 2 mps 641 mmHg 86%
    01:00 +8°C° 0 mm 2 mps 641 mmHg 85%
    02:00 +8°C° 0 mm 2 mps 641 mmHg 84%
    03:00 +7°C° 0 mm 2 mps 641 mmHg 83%
    04:00 +7°C° 0 mm 2 mps 641 mmHg 82%
    05:00 +7°C° 0 mm 2 mps 641 mmHg 81%
    06:00 +7°C° 0 mm 2 mps 642 mmHg 80%
    07:00 +10°C° 0 mm 2 mps 643 mmHg 73%
    08:00 +13°C° 0 mm 2 mps 644 mmHg 65%
    09:00 +14°C° 0 mm 3 mps 645 mmHg 58%
    10:00 +16°C° 0 mm 3 mps 645 mmHg 53%
    11:00 +18°C° 0 mm 3 mps 646 mmHg 49%
    12:00 +19°C° 0 mm 3 mps 646 mmHg 45%
    13:00 +19°C° 0 mm 3 mps 646 mmHg 45%
    14:00 +19°C° 0 mm 3 mps 646 mmHg 46%
    15:00 +19°C° 0 mm 3 mps 646 mmHg 47%
    16:00 +17°C° 0 mm 3 mps 645 mmHg 55%
    17:00 +14°C° 0 mm 2 mps 644 mmHg 64%
    18:00 +12°C° 0 mm 2 mps 644 mmHg 73%
    19:00 +10°C° 0 mm 2 mps 644 mmHg 76%
    20:00 +10°C° 0 mm 2 mps 644 mmHg 78%
    21:00 +10°C° 0 mm 1 mps 644 mmHg 81%
    22:00 +10°C° 0 mm 1 mps 643 mmHg 81%
    23:00 +10°C° 0 mm 1 mps 643 mmHg 81%

    Day after tomorrow, 27 September, Thursday

    Time Temperature Precipitation Wind Pressure Humidity
    00:00 +9°C° 0 mm 1 mps 643 mmHg 81%
    01:00 +9°C° 0 mm 1 mps 643 mmHg 80%
    02:00 +9°C° 0 mm 1 mps 643 mmHg 80%
    03:00 +9°C° 0 mm 1 mps 643 mmHg 79%
    04:00 +9°C° 0 mm 1 mps 642 mmHg 78%
    05:00 +9°C° 0 mm 1 mps 642 mmHg 77%
    06:00 +9°C° 0 mm 1 mps 642 mmHg 75%
    07:00 +12°C° 0 mm 1 mps 643 mmHg 66%
    08:00 +15°C° 0 mm 1 mps 644 mmHg 57%
    09:00 +19°C° 0 mm 1 mps 646 mmHg 48%
    10:00 +20°C° 0 mm 1 mps 646 mmHg 45%
    11:00 +21°C° 0 mm 1 mps 646 mmHg 42%
    12:00 +21°C° 0 mm 2 mps 646 mmHg 40%
    13:00 +21°C° 0 mm 2 mps 646 mmHg 41%
    14:00 +21°C° 0 mm 2 mps 645 mmHg 42%
    15:00 +21°C° 0 mm 2 mps 644 mmHg 43%
    16:00 +19°C° 0 mm 1 mps 643 mmHg 53%
    17:00 +16°C° 0 mm 1 mps 642 mmHg 63%
    18:00 +13°C° 0 mm 1 mps 641 mmHg 72%
    19:00 +13°C° 0 mm 1 mps 641 mmHg 74%
    20:00 +12°C° 0 mm 1 mps 641 mmHg 75%
    21:00 +12°C° 0 mm 1 mps 641 mmHg 77%
    22:00 +12°C° 0 mm 1 mps 641 mmHg 75%
    23:00 +11°C° 0 mm 1 mps 640 mmHg 73%

    28 September, Friday

    Time Temperature Precipitation Wind Pressure Humidity
    00:00 +11°C° 0 mm 1 mps 640 mmHg 71%
    01:00 +10°C° 0 mm 2 mps 639 mmHg 67%
    02:00 +10°C° 0 mm 2 mps 639 mmHg 62%
    03:00 +10°C° 0 mm 2 mps 639 mmHg 58%
    04:00 +9°C° 0 mm 2 mps 638 mmHg 57%
    05:00 +9°C° 0 mm 2 mps 638 mmHg 56%
    06:00 +9°C° 0 mm 2 mps 638 mmHg 55%
    07:00 +13°C° 0 mm 2 mps 639 mmHg 50%
    08:00 +16°C° 0 mm 2 mps 640 mmHg 45%
    09:00 +19°C° 0 mm 1 mps 641 mmHg 40%
    10:00 +20°C° 0 mm 2 mps 641 mmHg 38%
    11:00 +21°C° 0 mm 2 mps 641 mmHg 36%
    12:00 +23°C° 0 mm 2 mps 641 mmHg 33%
    13:00 +23°C° 0 mm 2 mps 640 mmHg 34%
    14:00 +21°C° 0 mm 2 mps 639 mmHg 35%
    15:00 +21°C° 0 mm 2 mps 639 mmHg 36%
    16:00 +19°C° 0 mm 2 mps 638 mmHg 44%
    17:00 +16°C° 0 mm 2 mps 637 mmHg 52%
    18:00 +14°C° 0 mm 2 mps 636 mmHg 60%
    19:00 +13°C° 0 mm 2 mps 636 mmHg 61%
    20:00 +13°C° 0 mm 2 mps 636 mmHg 62%
    21:00 +12°C° 0 mm 2 mps 636 mmHg 64%
    22:00 +12°C° 0 mm 2 mps 635 mmHg 64%
    23:00 +10°C° 0 mm 2 mps 635 mmHg 63%

    29 September, Saturday

    Time Temperature Precipitation Wind Pressure Humidity
    00:00 +11°C° 0 mm 1 mps 635 mmHg 63%
    01:00 +11°C° 0 mm 1 mps 635 mmHg 63%
    02:00 +11°C° 0 mm 1 mps 635 mmHg 63%
    03:00 +11°C° 0 mm 1 mps 634 mmHg 63%
    04:00 +10°C° 0 mm 1 mps 634 mmHg 62%
    05:00 +10°C° 0 mm 1 mps 634 mmHg 62%
    06:00 +10°C° 0 mm 1 mps 634 mmHg 61%
    07:00 +13°C° 0 mm 1 mps 635 mmHg 54%
    08:00 +16°C° 0 mm 1 mps 637 mmHg 47%
    09:00 +20°C° 0 mm 1 mps 638 mmHg 40%
    10:00 +21°C° 0 mm 1 mps 638 mmHg 39%
    11:00 +21°C° 0 mm 2 mps 638 mmHg 37%
    12:00 +23°C° 0 mm 2 mps 638 mmHg 36%
    13:00 +23°C° 0 mm 2 mps 638 mmHg 37%
    14:00 +21°C° 0 mm 2 mps 637 mmHg 38%
    15:00 +21°C° 0 mm 2 mps 637 mmHg 39%
    16:00 +19°C° 0 mm 2 mps 636 mmHg 46%
    17:00 +18°C° 0 mm 1 mps 636 mmHg 53%
    18:00 +15°C° 0 mm 1 mps 635 mmHg 61%
    19:00 +14°C° 0 mm 1 mps 635 mmHg 63%
    20:00 +13°C° 0 mm 1 mps 635 mmHg 66%
    21:00 +12°C° 0 mm 1 mps 635 mmHg 68%
    22:00 +12°C° 0 mm 1 mps 635 mmHg 69%
    23:00 +12°C° 0 mm 1 mps 635 mmHg 70%

    30 September, Sunday

    Time Temperature Precipitation Wind Pressure Humidity
    00:00 +11°C° 0 mm 1 mps 635 mmHg 70%
    01:00 +11°C° 0 mm 1 mps 635 mmHg 71%
    02:00 +11°C° 0 mm 1 mps 634 mmHg 73%
    03:00 +10°C° 0 mm 1 mps 634 mmHg 74%
    04:00 +10°C° 0 mm 1 mps 634 mmHg 74%
    05:00 +10°C° 0 mm 1 mps 634 mmHg 74%
    06:00 +10°C° 0 mm 1 mps 634 mmHg 75%
    07:00 +12°C° 0 mm 1 mps 635 mmHg 66%
    08:00 +15°C° 0 mm 1 mps 636 mmHg 57%
    09:00 +18°C° 0 mm 1 mps 638 mmHg 47%
    10:00 +18°C° 0 mm 2 mps 638 mmHg 46%
    11:00 +19°C° 0 mm 2 mps 638 mmHg 44%
    12:00 +20°C° 0 mm 2 mps 638 mmHg 42%
    13:00 +19°C° 0.1 mm 2 mps 638 mmHg 46%
    14:00 +19°C° 0.1 mm 2 mps 637 mmHg 49%
    15:00 +18°C° 0.1 mm 2 mps 637 mmHg 52%
    16:00 +16°C° 0.2 mm 2 mps 636 mmHg 61%
    17:00 +15°C° 0.2 mm 1 mps 636 mmHg 69%
    18:00 +13°C° 0.2 mm 1 mps 635 mmHg 78%
    19:00 +12°C° 0.1 mm 1 mps 635 mmHg 81%
    20:00 +12°C° 0.1 mm 1 mps 636 mmHg 84%
    21:00 +11°C° 0.1 mm 1 mps 636 mmHg 88%
    22:00 +11°C° 0.1 mm 1 mps 636 mmHg 88%
    23:00 +11°C° 0.1 mm 1 mps 635 mmHg 89%
    Show more